Flag for Brazil Weather past 2 weeks in Campinas, São Paulo, Brazil

Now
72 °F

Passing clouds.


Feels Like: 75 °F
Forecast: 70 / 84 °F
Wind: 6 mph from Southeast

Location: Campinas Aeroporto

Current Time: Dec 19, 2014 at 6:05:59 AM

Latest Report: Dec 19, 2014 at 5:00 AM


Visibility: N/A

Pressure: 29.89 "Hg

Humidity: 69%

Dew point: 61 °F

Location of CampinasLocation

Historic Weather in Campinas — Graph

°F

Campinas temperature yesterday

Maximum temperature yesterday: 91 °F (at 3:00 PM)
Minimum temperature yesterday: 68 °F (at 5:00 AM)
Average temperature yesterday: 80 °F

Past Weeks' High & Low Weather Summary

 TemperatureHumidityPressure
High91 °F (Dec 7, 7:00 PM)100% (Dec 14, 4:00 AM)30.12 "Hg (Dec 14, 4:00 AM)
Low61 °F (Dec 15, 6:00 AM)26% (Dec 7, 6:00 PM)29.80 "Hg (Dec 18, 6:00 PM)
Average74 °F69%29.99 "Hg
* Reported Dec 4 5:00 AM — Dec 19 5:00 AM, Campinas, Weather by CustomWeather, © 2014

Note: Actual official high and low records may vary slightly from our data, if they occured in-between our weather recording intervals... More about our weather records

Advertising

Campinas weather history for previous 24 hours

 ConditionsComfort  
Time TempWeatherWind HumidityBarometerVisibility
5:00 AM
Dec 19
72 °FPassing clouds.6 mph69%29.89 "HgN/A
4:00 AM72 °FPassing clouds.6 mph65%29.89 "HgN/A
3:00 AM72 °FClear.9 mph65%29.86 "Hg10 mi
2:00 AM73 °FClear.9 mph57%29.92 "Hg10 mi
1:00 AM75 °FClear.10 mph54%29.92 "Hg10 mi
12:00 AM77 °FPassing clouds.9 mph54%29.92 "HgN/A
11:00 PM
Dec 18
79 °FPassing clouds.8 mph54%29.92 "HgN/A
10:00 PM81 °FPassing clouds.8 mph54%29.89 "HgN/A
9:00 PM84 °FPassing clouds.5 mph43%29.86 "HgN/A
8:00 PM86 °FPassing clouds.7 mph38%29.83 "HgN/A
7:00 PM88 °FPassing clouds.8 mph35%29.83 "HgN/A
6:00 PM90 °FPassing clouds.12 mph33%29.80 "HgN/A
5:00 PM90 °FPassing clouds.12 mph33%29.83 "HgN/A
4:00 PM90 °FPassing clouds.9 mph33%29.83 "HgN/A
3:00 PM91 °FScattered clouds.9 mph32%29.86 "HgN/A
2:00 PM90 °FScattered clouds.6 mph33%29.89 "HgN/A
1:00 PM90 °FScattered clouds.6 mph33%29.89 "HgN/A
12:00 PM86 °FScattered clouds.3 mph40%29.92 "HgN/A
11:00 AM84 °FSunny.6 mph45%29.92 "Hg10 mi
10:00 AM81 °FSunny.10 mph54%29.95 "Hg10 mi
9:00 AM77 °FSunny.10 mph61%29.95 "Hg10 mi
8:00 AM72 °FSunny.12 mph73%29.92 "Hg10 mi
7:00 AM68 °FClear.12 mph83%29.89 "Hg6 mi
6:00 AM68 °FClear.8 mph78%29.89 "Hg10 mi
Weather by CustomWeather, © 2014

See weather overviewHow to use our weather pages